KSAVKEYW

Guest
Details From KSAV - Savannah Hilton Head Intl
To KEYW - Key West Intl
Flight Number -
Tags Generated
Created
Modified
Stats Distance 456 nm / 845 km
Max Altitude 0 ft / 0 m
Waypoints 4
Social Downloads 1
Likes 0
Share VATSIM

Download

Looking for another format? Having issues loading an existing format? Contact us
Advertisement - Login to hide

Notes

Generated

Route

KSAV DUZJI MACIV KEYW

ID Type Via Altitude Latitude Longitude Leg Dist Tot Dist Heading (true) Name
O KSAV APT - 0 ft / 0 m 32.13582˚ -81.20014˚ - 0 nm - -
DUZJI FIX - 0 ft / 0 m 28.36514˚ -81.49022˚ 226 nm 226 nm 184° / 184° -
MACIV FIX - 0 ft / 0 m 24.55597˚ -81.76669˚ 229 nm 456 nm 184° / 184° -
O KEYW APT - 0 ft / 0 m 24.55605˚ -81.76677˚ 0 nm 456 nm 321° / 321° -

Altitude Profile

Advertisement - Login to hide

Weather


0- 5 10 15 20 25 30 35+ Temperature / ° C

Clouds and Precipitation
Forecast for 2018-05-21 06:00 UTC. Updated 18 minutes ago

Ground ~20,000 ft ~40,000 ft Winds

KSAV

Details ICAO KSAV (SAV)
Name Savannah Hilton Head Intl
Region United States
Timezone America/New_York (UTC-4.0)
Stats Elevation 51 ft / 16 m (AMSL)
Location 32.127403° -81.201878°
Runways 2
Magnetic Variation 7.059° W

METAR

KSAV 210253Z 00000KT 10SM FEW010 22/21 A3017 RMK AO2 SLP216 T02170211 53009

Decode

TAF

TAF AMD KSAV 210056Z 2101/2124 VRB03KT P6SM SCT015 BKN150 TEMPO 2101/2105 SCT005 FM211400 13007KT P6SM SCT025 BKN200 FM212000 13012KT P6SM SCT035 BKN200

Decode

Departure Runways

ID Width Length Bearing (true) Bearing (mag) Surface Threshold Offset Overrun Length
01 150 ft / 46 m 7,024 ft / 2,141 m 359.63° 6.69° Concrete 0 ft / 0 m 0 ft / 0 m
10 150 ft / 46 m 9,334 ft / 2,845 m 90.61° 97.67° Concrete 0 ft / 0 m 1,000 ft / 305 m
19 150 ft / 46 m 7,024 ft / 2,141 m 179.63° 186.69° Concrete 0 ft / 0 m 0 ft / 0 m
28 150 ft / 46 m 9,334 ft / 2,845 m 270.63° 277.69° Concrete 0 ft / 0 m 150 ft / 46 m

KEYW

Details ICAO KEYW (EYW)
Name Key West Intl
Region United States
Timezone America/New_York (UTC-4.0)
Stats Elevation 2 ft / 1 m (AMSL)
Location 24.556124° -81.759546°
Runways 1
Magnetic Variation 5.592° W

METAR

KEYW 210253Z AUTO 11016KT 10SM OVC120 27/24 A3001 RMK AO2 SLP163 T02670239 51005

Decode

TAF

KEYW 202333Z 2100/2124 11013G19KT P6SM FEW015 BKN150 FM210400 12011G16KT P6SM VCSH SCT015 BKN050 OVC100

Decode

Destination Runways

ID Width Length Bearing (true) Bearing (mag) Surface Threshold Offset Overrun Length
09 100 ft / 30 m 4,794 ft / 1,461 m 89.38° 94.97° Asphalt 151 ft / 46 m 0 ft / 0 m
27 100 ft / 30 m 4,794 ft / 1,461 m 269.39° 274.98° Asphalt 151 ft / 46 m 0 ft / 0 m

Popular Alternatives